Regional Weather Roundup
Issued by NWS

Home | Current Version | Previous Version | Graphics & Text | Print | Product List | Glossary Off
Versions: 1 2 3 4 5 6 7 8 9 10 11 12 13 14 15 16 17 18 19 20 21 22 23 24 25 26 27 28 29 30 31 32 33 34 35 36 37 38 39 40 41 42 43 44 45 46 47 48 49 50

000
ASUS45 KBOU 252307
RWRCO

WEATHER ROUNDUP FOR COLORADO
NATIONAL WEATHER SERVICE DENVER/BOULDER CO
500 PM MDT THU MAY 25 2017

NOTE: "FAIR" INDICATES FEW OR NO CLOUDS BELOW 12000 FEET WITH NO
SIGNIFICANT WEATHER AND/OR OBSTRUCTIONS TO VISIBILITY.

COZ001>005-013-030-031-260000-
...NORTHWEST COLORADO...

CITY           SKY/WX    TMP DP  RH WIND       PRES   REMARKS
CRAIG          LGT RAIN  53  44  71 SE9       29.77R
HAYDEN         FAIR      48  39  71 S7        29.79R
MEEKER         FAIR      61  43  51 E10       29.74F
RABBIT EARS PA TSTM      34  32  93 W10G23    29.95R WCI  26
STEAMBOAT SPGS CLOUDY    44  38  81 NE6       29.83R
WALDEN           N/A     41  34  75 W23G38    29.91R
$$

COZ006>008-011-260000-
...WEST CENTRAL VALLEYS...

CITY           SKY/WX    TMP DP  RH WIND       PRES   REMARKS
GRAND JUNCTION FAIR      80  29  15 SW21G28   29.61F
MONTROSE       FAIR      76  25  15 S16       29.69R
EAGLE          PTSUNNY   66  30  26 W14G30    29.74R
RIFLE          FAIR      71  30  21 S13G32    29.66R
DELTA          FAIR      81  24  12 NW15G28   29.64S
NUCLA          NOT AVBL
$$

COZ017>023-064>068-260000-
...SOUTHWEST COLORADO...

CITY           SKY/WX    TMP DP  RH WIND       PRES   REMARKS
DURANGO        LGT RAIN  69  23  17 S6G16     29.77F
CORTEZ         FAIR      80  20  10 W13G31    29.71S
PAGOSA SPRINGS NOT AVBL
TELLURIDE      PTSUNNY   62  18  18 SW17G29   29.93R
WOLF CREEK PAS CLOUDY    45  18  33 SW26G39   30.11F
$$

COZ009-010-012-014-032>034-037-058>063-260000-
...CENTRAL COLORADO...

CITY           SKY/WX    TMP DP  RH WIND       PRES   REMARKS
ASPEN          PTSUNNY   59  33  37 SE15      29.81F
BUENA VISTA    FAIR      64  25  22 W14G22    29.81F
COPPER MTN     FAIR      45  27  49 SW17G28   30.03R
BERTHOUD PASS  FAIR      36  28  75 W26G39    30.01S
COTTONWOOD PAS FAIR      59  21  23 W8G21     29.91R
GUNNISON       FAIR      66  25  21 W14G23    29.81S
KREMMLING      PTSUNNY   55  41  58 N16G22    29.80R
LEADVILLE      FAIR      50  28  42 S14G21    29.91F
MONARCH PASS   FAIR      45  21  39 W40G55    30.14F
SALIDA         CLOUDY    68  19  15 N3G18     29.84F
SUNLIGHT       MIX PCPN  41  27  56 SW18G35   29.97R
WILKERSON PASS FAIR      43  25  49 SW13G24   30.00F
$$

COZ069>075-260000-
...SAN LUIS VALLEY/SANGRE DE CRISTO MOUNTAINS...

CITY           SKY/WX    TMP DP  RH WIND       PRES   REMARKS
ALAMOSA        FAIR      74  17  11 W28G43    29.78S
DEL NORTE      FAIR      71  20  14 W32G44    29.81S
LA VETA PASS   FAIR      59  12  15 MISG      30.05R
SAGUACHE       FAIR      68  25  19 NW16G25   29.79R
$$

COZ035-036-038>040-260000-
...NORTHERN COLORADO FRONT RANGE...

CITY           SKY/WX    TMP DP  RH WIND       PRES   REMARKS
DENVER INTL AP PTSUNNY   68  45  43 N17       29.65R
DMNS CITY PARK   N/A     66  43  43 E8G18     29.65S
AURORA         PTSUNNY   71  42  35 N14       29.67R
FRONT RANGE AP PTSUNNY   70  46  43 N17       29.66
ERIE MUNI ARPT FAIR      65  43  44 N3        29.63F
BOULDER MUN AP FAIR      66  37  34 NE8       29.63F
CENTENNIAL     PTSUNNY   67  39  35 N13G23    29.68R
BROOMFIELD     NOT AVBL
FORT COLLINS   FAIR      63  42  46 W8        29.65F
LONGMONT       FAIR      64  44  47 N9        29.64F
$$

COZ041-046-047-076>085-087-088-260000-
...PIKES PEAK/PALMER DIVIDE AND SOUTHERN FOOTHILLS...

CITY           SKY/WX    TMP DP  RH WIND       PRES   REMARKS
COLO. SPRINGS  PTSUNNY   70  41  34 N26G36    29.67R
A. F. ACADEMY  PTSUNNY   65  40  40 NW16      29.72R
SCHRIEVER AFB  PTSUNNY   71  44  38 N25G35    29.65R
CHEYENNE MTN   PTSUNNY   67  37  32 N17G25    29.66R
ELLICOTT       FAIR     N/A N/A N/A W30G45    29.62R
FALCON         FAIR      64  44  47 N13G24    29.73R
FORT CARSON    PTSUNNY   73  41  31 NW24G30   29.63R
LIMON          FAIR      64  46  52 N13G22    29.64R
MONUMENT HILL  FAIR      61  41  48 N16       29.77R
CANON CITY     NOT AVBL
WALSENBURG     FAIR      81  21  11 W29G43    29.65R
TRINIDAD       FAIR      83  18   9 W22G35    29.64S
$$

COZ042>045-048>051-090-091-260000-
...NORTHEAST COLORADO...

CITY           SKY/WX    TMP DP  RH WIND       PRES   REMARKS
GREELEY ARPT   FAIR      68  45  43 CALM      29.64S
AKRON          LGT RAIN  58  50  75 N8        29.65R
BURLINGTON     FAIR      62  50  64 N20G38    29.59R
WRAY           HVY RAIN  59  50  72 N12       29.64R
YUMA           DRIZZLE   59  48  67 NE9       29.60F
STERLING       CLOUDY    64  55  72 SE6       29.62F
HOLYOKE        NOT AVBL
FORT MORGAN    CLOUDY    65  47  52 E10G18    29.66F
$$

COZ086-089-092>099-260000-
...SOUTHEAST COLORADO...

CITY           SKY/WX    TMP DP  RH WIND       PRES   REMARKS
PUEBLO         FAIR      87  25  10 W29G35    29.52S
LA JUNTA       FAIR      90  24   9 W28G35    29.49S
LAMAR          FAIR      91  31  11 SW22G29   29.44S
SPRINGFIELD      N/A     88  29  12 SW21G29   29.52S
$$



USA.gov is the U.S. government's official web portal to all federal, state and local government web resources and services.